| time (UTC) | temp F | wind direction | speed MPH | gust MPH | rain 1hr in | rain 24hr in | rain mn in | humidity % | barometer mb |
| 20260901185307 | 97 | 117 | 4.0 | 8.0 | 0.00 | 0.00 | 0.00 | 46 | 1014.0 |
| 20260901184307 | 98 | 124 | 3.0 | 12.0 | 0.00 | 0.00 | 0.00 | 44 | 1014.3 |
| 20260901183807 | 97 | 34 | 5.0 | 12.0 | 0.00 | 0.00 | 0.00 | 45 | 1014.3 |
| 20260901183307 | 97 | 108 | 5.0 | 9.0 | 0.00 | 0.00 | 0.00 | 46 | 1014.3 |
| 20260901182807 | 97 | 82 | 2.0 | 12.0 | 0.00 | 0.00 | 0.00 | 47 | 1014.3 |
| 20260901182307 | 97 | 91 | 4.0 | 12.0 | 0.00 | 0.00 | 0.00 | 47 | 1014.9 |
| 20260901181307 | 96 | 119 | 5.0 | 9.0 | 0.00 | 0.00 | 0.00 | 48 | 1014.9 |
| 20260901174307 | 96 | 95 | 3.0 | 6.0 | 0.00 | 0.00 | 0.00 | 49 | 1015.1 |
| 20260901171307 | 96 | 188 | 3.0 | 7.0 | 0.00 | 0.00 | 0.00 | 48 | 1015.6 |
| 20260901170807 | 95 | 141 | 3.0 | 10.0 | 0.00 | 0.00 | 0.00 | 50 | 1015.9 |
| 20260901164807 | 95 | 141 | 2.0 | 8.0 | 0.00 | 0.00 | 0.00 | 51 | 1015.9 |
| 20260901164307 | 95 | 208 | 1.0 | 8.0 | 0.00 | 0.00 | 0.00 | 52 | 1015.9 |
| 20260901163307 | 94 | 162 | 4.0 | 12.0 | 0.00 | 0.00 | 0.00 | 53 | 1015.9 |
| 20260901161807 | 93 | 15 | 3.0 | 6.0 | 0.00 | 0.00 | 0.00 | 53 | 1015.9 |
| 20260901161306 | 94 | 237 | 2.0 | 8.0 | 0.00 | 0.00 | 0.00 | 54 | 1015.9 |
| 20260901160307 | 92 | 240 | 4.0 | 7.0 | 0.00 | 0.00 | 0.00 | 55 | 1015.9 |
| 20260901154307 | 92 | 245 | 2.0 | 6.0 | 0.00 | 0.00 | 0.00 | 55 | 1015.8 |
| 20260901151806 | 90 | 203 | 3.0 | 6.0 | 0.00 | 0.00 | 0.00 | 59 | 1015.8 |
| 20260901150806 | 89 | 222 | 2.0 | 6.0 | 0.00 | 0.00 | 0.00 | 60 | 1015.8 |
| 20260901145307 | 88 | 167 | 3.0 | 8.0 | 0.00 | 0.00 | 0.00 | 63 | 1015.9 |
| 20260901144806 | 87 | 165 | 5.0 | 7.0 | 0.00 | 0.00 | 0.00 | 64 | 1015.9 |
| 20260901144306 | 87 | 171 | 3.0 | 6.0 | 0.00 | 0.00 | 0.00 | 65 | 1015.9 |
| 20260901143807 | 87 | 206 | 2.0 | 3.0 | 0.00 | 0.00 | 0.00 | 65 | 1015.9 |
| 20260901143306 | 86 | 215 | 2.0 | 7.0 | 0.00 | 0.00 | 0.00 | 66 | 1015.9 |
| 20260901142807 | 86 | 183 | 3.0 | 8.0 | 0.00 | 0.00 | 0.00 | 66 | 1015.9 |
| 20260901142306 | 86 | 197 | 3.0 | 5.0 | 0.00 | 0.00 | 0.00 | 67 | 1015.9 |
| 20260901141807 | 85 | 172 | 4.0 | 7.0 | 0.00 | 0.00 | 0.00 | 67 | 1015.9 |
| 20260901135306 | 84 | 124 | 5.0 | 8.0 | 0.00 | 0.00 | 0.00 | 69 | 1016.0 |
| 20260901134307 | 83 | 154 | 5.0 | 9.0 | 0.00 | 0.00 | 0.00 | 70 | 1015.9 |
| 20260901133806 | 83 | 155 | 4.0 | 6.0 | 0.00 | 0.00 | 0.00 | 70 | 1015.8 |
| 20260901132806 | 82 | 156 | 3.0 | 7.0 | 0.00 | 0.00 | 0.00 | 71 | 1015.9 |
| 20260901132307 | 82 | 150 | 3.0 | 8.0 | 0.00 | 0.00 | 0.00 | 71 | 1015.9 |
| 20260901131307 | 81 | 148 | 3.0 | 6.0 | 0.00 | 0.00 | 0.00 | 72 | 1015.7 |
| 20260901130306 | 81 | 150 | 3.0 | 5.0 | 0.00 | 0.00 | 0.00 | 73 | 1015.6 |
| 20260901125806 | 80 | 148 | 4.0 | 6.0 | 0.00 | 0.00 | 0.00 | 73 | 1015.5 |
| 20260901125309 | 80 | 70 | 3.0 | 5.0 | 0.00 | 0.00 | 0.00 | 73 | 1015.5 |
| 20260901124806 | 80 | 155 | 3.0 | 5.0 | 0.00 | 0.00 | 0.00 | 73 | 1015.2 |
| 20260901122806 | 80 | 157 | 0.0 | 1.0 | 0.00 | 0.00 | 0.00 | 73 | 1015.0 |
| 20260901121306 | 80 | 156 | 1.0 | 3.0 | 0.00 | 0.00 | 0.00 | 72 | 1015.0 |
| 20260901120306 | 80 | 157 | 2.0 | 6.0 | 0.00 | 0.00 | 0.00 | 71 | 1014.9 |
| 20260901115806 | 80 | 157 | 2.0 | 3.0 | 0.00 | 0.00 | 0.00 | 71 | 1014.9 |
| 20260901114306 | 81 | 157 | 2.0 | 3.0 | 0.00 | 0.00 | 0.00 | 71 | 1014.7 |
| 20260901110806 | 81 | 157 | 3.0 | 3.0 | 0.00 | 0.00 | 0.00 | 69 | 1014.3 |
| 20260901110307 | 81 | 157 | 3.0 | 5.0 | 0.00 | 0.00 | 0.00 | 68 | 1014.3 |
| 20260901105807 | 82 | 154 | 3.0 | 6.0 | 0.00 | 0.00 | 0.00 | 68 | 1014.3 |
| 20260901105306 | 82 | 153 | 2.0 | 5.0 | 0.00 | 0.00 | 0.00 | 68 | 1014.3 |
| 20260901104806 | 82 | 152 | 2.0 | 3.0 | 0.00 | 0.00 | 0.00 | 68 | 1014.5 |
| 20260901103806 | 82 | 129 | 4.0 | 7.0 | 0.00 | 0.00 | 0.00 | 67 | 1014.5 |
| 20260901102306 | 82 | 177 | 3.0 | 5.0 | 0.00 | 0.00 | 0.00 | 67 | 1014.4 |
| 20260901100806 | 83 | 157 | 3.0 | 6.0 | 0.00 | 0.00 | 0.00 | 66 | 1014.5 |
| 20260901100306 | 83 | 157 | 3.0 | 6.0 | 0.00 | 0.00 | 0.00 | 66 | 1014.6 |
| 20260901095806 | 83 | 155 | 4.0 | 6.0 | 0.00 | 0.00 | 0.00 | 66 | 1014.6 |
| 20260901093806 | 83 | 156 | 2.0 | 3.0 | 0.00 | 0.00 | 0.00 | 64 | 1014.6 |
| 20260901093305 | 84 | 158 | 2.0 | 5.0 | 0.00 | 0.00 | 0.00 | 64 | 1014.6 |
| 20260901092806 | 84 | 159 | 2.0 | 3.0 | 0.00 | 0.00 | 0.00 | 64 | 1014.6 |
| 20260901092306 | 84 | 159 | 1.0 | 3.0 | 0.00 | 0.00 | 0.00 | 63 | 1014.6 |
| 20260901091306 | 84 | 158 | 3.0 | 6.0 | 0.00 | 0.00 | 0.00 | 63 | 1014.6 |
| 20260901085805 | 84 | 208 | 5.0 | 9.0 | 0.00 | 0.00 | 0.00 | 63 | 1014.1 |
| 20260901085306 | 84 | 245 | 4.0 | 10.0 | 0.00 | 0.00 | 0.00 | 63 | 1014.1 |
| 20260901084805 | 84 | 273 | 6.0 | 12.0 | 0.00 | 0.00 | 0.00 | 62 | 1014.1 |
| 20260901083806 | 84 | 212 | 5.0 | 8.0 | 0.00 | 0.00 | 0.00 | 61 | 1014.2 |
| 20260901082805 | 84 | 345 | 5.0 | 9.0 | 0.00 | 0.00 | 0.00 | 60 | 1014.2 |
| 20260901082306 | 85 | 20 | 5.0 | 7.0 | 0.00 | 0.00 | 0.00 | 60 | 1014.2 |
| 20260901081305 | 85 | 42 | 5.0 | 9.0 | 0.00 | 0.00 | 0.00 | 60 | 1014.1 |
| 20260901080806 | 85 | 47 | 5.0 | 8.0 | 0.00 | 0.00 | 0.00 | 60 | 1014.2 |
| 20260901080306 | 85 | 137 | 5.0 | 8.0 | 0.00 | 0.00 | 0.00 | 60 | 1014.2 |
| 20260901074805 | 85 | 98 | 5.0 | 9.0 | 0.00 | 0.00 | 0.00 | 60 | 1014.2 |
| 20260901074305 | 85 | 47 | 5.0 | 8.0 | 0.00 | 0.00 | 0.00 | 59 | 1014.2 |
| 20260901073305 | 85 | 105 | 5.0 | 7.0 | 0.00 | 0.00 | 0.00 | 59 | 1014.2 |
| 20260901072309 | 85 | 119 | 4.0 | 8.0 | 0.00 | 0.00 | 0.00 | 59 | 1014.2 |
| 20260901071805 | 85 | 24 | 5.0 | 8.0 | 0.00 | 0.00 | 0.00 | 59 | 1014.2 |
| 20260901070805 | 85 | 105 | 4.0 | 8.0 | 0.00 | 0.00 | 0.00 | 58 | 1014.3 |
| 20260901070305 | 85 | 129 | 5.0 | 8.0 | 0.00 | 0.00 | 0.00 | 58 | 1014.3 |
| 20260901065805 | 86 | 123 | 3.0 | 7.0 | 0.00 | 0.00 | 0.00 | 57 | 1014.3 |
| 20260901065306 | 86 | 127 | 4.0 | 8.0 | 0.00 | 0.00 | 0.00 | 57 | 1014.1 |
| 20260901064805 | 86 | 126 | 3.0 | 7.0 | 0.00 | 0.00 | 0.00 | 57 | 1014.2 |
| 20260901064305 | 86 | 13 | 5.0 | 8.0 | 0.00 | 0.00 | 0.00 | 57 | 1014.1 |
| 20260901063805 | 86 | 143 | 3.0 | 6.0 | 0.00 | 0.00 | 0.00 | 56 | 1014.0 |
| 20260901061805 | 86 | 102 | 4.0 | 8.0 | 0.00 | 0.00 | 0.00 | 55 | 1013.8 |
| 20260901060305 | 86 | 122 | 5.0 | 9.0 | 0.00 | 0.00 | 0.00 | 54 | 1013.8 |
| 20260901055805 | 87 | 131 | 5.0 | 7.0 | 0.00 | 0.00 | 0.00 | 54 | 1013.8 |
| 20260901054805 | 87 | 137 | 3.0 | 7.0 | 0.00 | 0.00 | 0.00 | 53 | 1013.6 |
| 20260901054305 | 87 | 130 | 3.0 | 8.0 | 0.00 | 0.00 | 0.00 | 53 | 1013.6 |
| 20260901050942 | 87 | 128 | 3.0 | 6.0 | 0.00 | 0.00 | 0.00 | 51 | 1013.3 |
| 20260901050306 | 87 | 141 | 3.0 | 6.0 | 0.00 | 0.00 | 0.00 | 51 | 1013.3 |
| 20260901045805 | 87 | 128 | 4.0 | 8.0 | 0.00 | 0.00 | 0.00 | 50 | 1013.3 |
| 20260901044305 | 87 | 102 | 4.0 | 8.0 | 0.00 | 0.00 | 0.00 | 50 | 1013.1 |
| 20260901043805 | 88 | 110 | 2.0 | 3.0 | 0.00 | 0.00 | 0.00 | 50 | 1013.1 |
| 20260901043305 | 88 | 126 | 2.0 | 5.0 | 0.00 | 0.00 | 0.00 | 49 | 1013.1 |
| 20260901042306 | 88 | 112 | 3.0 | 7.0 | 0.00 | 0.00 | 0.00 | 49 | 1013.1 |
| 20260901041304 | 88 | 113 | 3.0 | 5.0 | 0.00 | 0.00 | 0.00 | 50 | 1013.1 |
| 20260901035306 | 88 | 112 | 2.0 | 3.0 | 0.00 | 0.00 | 0.00 | 49 | 1013.1 |
| 20260901034804 | 89 | 111 | 1.0 | 3.0 | 0.00 | 0.00 | 0.00 | 48 | 1013.1 |
| 20260901034304 | 89 | 111 | 1.0 | 3.0 | 0.00 | 0.00 | 0.00 | 48 | 1013.1 |
| 20260901033804 | 89 | 111 | 2.0 | 3.0 | 0.00 | 0.00 | 0.00 | 47 | 1013.0 |
| 20260901032804 | 90 | 110 | 3.0 | 6.0 | 0.00 | 0.00 | 0.00 | 47 | 1013.0 |
| 20260901032306 | 90 | 148 | 2.0 | 5.0 | 0.00 | 0.00 | 0.00 | 46 | 1013.0 |
| 20260901030304 | 91 | 146 | 2.0 | 5.0 | 0.00 | 0.00 | 0.00 | 43 | 1012.8 |
| 20260901025805 | 91 | 148 | 2.0 | 3.0 | 0.00 | 0.00 | 0.00 | 43 | 1012.8 |
| 20260901023804 | 92 | 83 | 4.0 | 7.0 | 0.00 | 0.00 | 0.00 | 42 | 1012.5 |
| 20260901020805 | 93 | 146 | 3.0 | 6.0 | 0.00 | 0.00 | 0.00 | 42 | 1012.3 |
| 20260901020305 | 93 | 144 | 2.0 | 6.0 | 0.00 | 0.00 | 0.00 | 41 | 1012.3 |
| 20260901015804 | 93 | 136 | 3.0 | 6.0 | 0.00 | 0.00 | 0.00 | 41 | 1012.3 |
| 20260901015306 | 93 | 133 | 3.0 | 6.0 | 0.00 | 0.00 | 0.00 | 41 | 1012.3 |
| 20260901014804 | 94 | 140 | 3.0 | 7.0 | 0.00 | 0.00 | 0.00 | 40 | 1012.1 |
| 20260901014304 | 94 | 122 | 5.0 | 8.0 | 0.00 | 0.00 | 0.00 | 40 | 1012.1 |
| 20260901013804 | 94 | 133 | 3.0 | 8.0 | 0.00 | 0.00 | 0.00 | 40 | 1012.1 |
| 20260901013304 | 94 | 112 | 3.0 | 7.0 | 0.00 | 0.00 | 0.00 | 39 | 1011.9 |
| 20260901012306 | 95 | 147 | 5.0 | 7.0 | 0.00 | 0.00 | 0.00 | 39 | 1011.9 |
| 20260901011304 | 95 | 93 | 5.0 | 8.0 | 0.00 | 0.00 | 0.00 | 39 | 1011.9 |
| 20260901010304 | 96 | 66 | 5.0 | 8.0 | 0.00 | 0.00 | 0.00 | 37 | 1011.9 |
| 20260901005306 | 96 | 137 | 5.0 | 10.0 | 0.00 | 0.00 | 0.00 | 37 | 1011.9 |
| 20260901004304 | 96 | 130 | 5.0 | 8.0 | 0.00 | 0.00 | 0.00 | 36 | 1011.9 |
| 20260901003804 | 97 | 137 | 5.0 | 12.0 | 0.00 | 0.00 | 0.00 | 36 | 1011.9 |
| 20260901003305 | 97 | 115 | 3.0 | 7.0 | 0.00 | 0.00 | 0.00 | 36 | 1011.9 |
| 20260901002805 | 97 | 24 | 6.0 | 12.0 | 0.00 | 0.00 | 0.00 | 35 | 1011.9 |
| 20260901000313 | 98 | 126 | 6.0 | 14.0 | 0.00 | 0.00 | 0.00 | 34 | 1011.8 |
| 20260831235308 | 98 | 16 | 6.0 | 12.0 | 0.00 | 0.00 | 0.00 | 34 | 1011.7 |
| 20260831234808 | 98 | 84 | 7.0 | 15.0 | 0.00 | 0.00 | 0.00 | 34 | 1011.9 |
| 20260831234308 | 98 | 126 | 6.0 | 12.0 | 0.00 | 0.00 | 0.00 | 34 | 1011.9 |
| 20260831233808 | 98 | 110 | 3.0 | 8.0 | 0.00 | 0.00 | 0.00 | 34 | 1011.9 |
| 20260831230809 | 99 | 133 | 5.0 | 12.0 | 0.00 | 0.00 | 0.00 | 33 | 1011.7 |
| 20260831225808 | 99 | 99 | 8.0 | 13.0 | 0.00 | 0.00 | 0.00 | 32 | 1011.9 |
| 20260831225308 | 99 | 135 | 8.0 | 15.0 | 0.00 | 0.00 | 0.00 | 32 | 1011.9 |
| 20260831223309 | 100 | 87 | 6.0 | 14.0 | 0.00 | 0.00 | 0.00 | 33 | 1012.0 |
| 20260831222808 | 100 | 95 | 7.0 | 14.0 | 0.00 | 0.00 | 0.00 | 33 | 1012.0 |
| 20260831222308 | 100 | 126 | 5.0 | 13.0 | 0.00 | 0.00 | 0.00 | 32 | 1012.2 |
| 20260831215308 | 99 | 121 | 1.0 | 9.0 | 0.00 | 0.00 | 0.00 | 33 | 1012.5 |
| 20260831213808 | 100 | 102 | 6.0 | 12.0 | 0.00 | 0.00 | 0.00 | 31 | 1012.5 |
| 20260831212808 | 100 | 120 | 3.0 | 9.0 | 0.00 | 0.00 | 0.00 | 31 | 1012.5 |
| 20260831210308 | 100 | 39 | 9.0 | 14.0 | 0.00 | 0.00 | 0.00 | 32 | 1012.9 |
| 20260831205808 | 100 | 138 | 9.0 | 20.0 | 0.00 | 0.00 | 0.00 | 34 | 1012.9 |
| 20260831204808 | 100 | 92 | 5.0 | 9.0 | 0.00 | 0.00 | 0.00 | 34 | 1013.3 |
| 20260831204307 | 100 | 153 | 4.0 | 16.0 | 0.00 | 0.00 | 0.00 | 34 | 1013.3 |
| 20260831195308 | 99 | 125 | 3.0 | 12.0 | 0.00 | 0.00 | 0.00 | 34 | 1013.9 |
| 20260831194808 | 99 | 341 | 5.0 | 15.0 | 0.00 | 0.00 | 0.00 | 34 | 1014.1 |
| 20260831193808 | 100 | 206 | 7.0 | 12.0 | 0.00 | 0.00 | 0.00 | 34 | 1014.1 |
| 20260831192308 | 99 | 162 | 6.0 | 13.0 | 0.00 | 0.00 | 0.00 | 34 | 1014.2 |